Skip Page Navigation
NASA JPL Caltech
NASA Logo - Jet Propulsion Laboratory + View the NASA Portal
+ Center for Near-Earth Object Studies
JPL Home Earth Solar System Stars & Galaxies Technology
JPL Solar System Dynamics
BODIES ORBITS EPHEMERIDES TOOLS PHYSICAL DATA DISCOVERY FAQ SITE MAP
JPL Small-Body Database Browser
Search: [ help ]  
160110 (2000 SW152)
Classification: Main-belt Asteroid          SPK-ID: 2160110
Ephemeris | Orbit Diagram | Orbital Elements | Mission Design | Physical Parameters | Discovery Circumstances ]

[ show orbit diagram ]
Orbital Elements at Epoch 2459200.5 (2020-Dec-17.0) TDB
Reference: JPL 17 (heliocentric ecliptic J2000)
 Element Value Uncertainty (1-sigma)   Units 
e .1954114337092709 5.2337e-08  
a 2.412805998785191 1.1656e-08 au
q 1.941316119300248 1.2571e-07 au
i 1.373680596859451 5.3876e-06 deg
node 349.5736583370256 0.00018838 deg
peri 40.94070142009271 0.00018871 deg
M 135.4797932717766 1.1777e-05 deg
tp 2458685.325857008592
(2019-Jul-20.82585701)
4.3304e-05 TDB
period 1368.932495378577
3.75
9.9199e-06
2.716e-08
d
yr
n .2629786356999601 1.9057e-09 deg/d
Q 2.884295878270134 1.3934e-08 au
  Orbit Determination Parameters
   # obs. used (total)      568  
   data-arc span      9567 days (26.19 yr)  
   first obs. used      1994-01-11  
   last obs. used      2020-03-22  
   planetary ephem.      DE431  
   SB-pert. ephem.      SB431-N16  
   condition code      0  
   norm. resid. RMS      .53309  
   source      ORB  
   producer      Otto Matic  
   solution date      2020-Nov-12 12:30:39  

Additional Information
 Earth MOID = .94581 au 
 Jupiter MOID = 2.56135 au 
 T_jup = 3.492 
[ show covariance matrix ]

Ephemeris | Orbit Diagram | Orbital Elements | Mission Design | Physical Parameters | Discovery Circumstances ]

Physical Parameter Table
Parameter Symbol Value Units Sigma Reference Notes
absolute magnitude H 16.31   n/a E2021B55  

160110 (2000 SW152)          Discovered 2000-Sep-24 by LINEAR at Socorro
Reference: 20070730/Numbers.arcLast Updated: 2007-08-06
Ephemeris | Orbit Diagram | Orbital Elements | Mission Design | Physical Parameters | Discovery Circumstances ]
ABOUT SSD CREDITS/AWARDS PRIVACY/COPYRIGHT GLOSSARY LINKS
FirstGov 2021-Apr-13 02:35 UT
(server date/time)  
NASA Home Page
Site Manager:   Ryan S. Park
Webmaster  Alan B. Chamberlin